Theta_e
277 277 277 277 276 276 276 276 276 276 276 276 276 276 275 274 272 270 270 272 272 274 274 275 275 275 275 276 277 276 275 278 280 277 276 276 276 279 283 286 287 287 288 288 288 289 289 289 290 290 291 291 292 293 294 294 295 295 296 297 297 298 298 299 300 301 301 301 302 302 302 302 303 303
277 277 276 276 276 276 276 276 276 276 276 275 275 275 275 275 274 273 271 271 273 273 275 275 275 275 275 276 277 277 275 280 280 277 276 276 276 281 283 284 285 286 287 287 288 288 288 289 289 290 290 291 292 293 293 294 294 295 295 297 297 298 298 299 300 300 300 300 301 301 302 302 302 303
277 276 276 276 275 276 276 276 275 276 275 275 275 275 275 275 274 273 272 269 272 274 273 274 275 274 275 275 275 276 276 278 279 277 276 276 279 281 280 282 283 285 285 286 287 288 288 288 289 290 290 291 292 293 293 293 293 294 294 296 297 297 298 298 298 298 299 299 300 300 301 301 301 303
276 276 275 275 275 275 275 275 275 275 275 275 275 274 274 274 274 274 273 272 272 274 273 273 274 274 274 275 275 274 275 277 279 276 276 276 280 277 276 279 282 283 285 286 287 288 288 289 289 290 290 291 291 292 292 292 293 293 294 295 296 297 296 296 296 297 297 297 298 299 299 299 300 300
276 276 275 275 275 275 275 275 275 274 274 274 274 274 274 273 274 273 272 271 271 273 274 274 273 274 274 273 274 274 274 274 275 277 276 276 275 276 276 276 280 282 284 285 286 287 288 289 289 290 289 289 290 291 291 292 292 292 294 294 295 295 296 296 296 295 295 297 297 297 298 298 299 299
276 276 275 275 275 275 275 274 274 274 274 274 273 273 273 273 273 274 272 272 271 270 272 272 274 273 274 272 274 273 273 273 275 275 275 276 276 275 276 276 276 281 283 285 286 287 287 288 289 289 289 289 289 290 291 291 291 291 292 292 292 292 294 295 295 295 294 295 296 296 297 297 298 299
276 275 275 275 274 274 274 274 274 274 273 274 273 273 273 272 272 273 273 272 270 270 270 272 271 272 273 273 272 273 274 275 275 274 275 275 276 277 277 276 277 281 283 285 286 286 287 287 287 288 288 288 288 289 289 290 290 290 290 291 291 291 292 292 293 293 294 294 296 296 296 297 298 298
275 275 275 274 274 274 273 273 273 273 273 273 273 272 273 272 272 272 273 272 271 271 269 271 271 273 272 273 273 274 275 274 274 275 275 275 276 276 277 276 276 279 283 284 285 286 286 286 286 287 287 287 288 288 289 289 289 289 289 289 290 291 291 291 292 292 292 293 294 295 296 296 296 297
275 275 275 274 274 274 273 273 272 273 272 272 272 272 272 272 272 272 272 271 272 270 269 270 271 272 272 273 273 274 273 274 274 275 275 275 276 276 276 277 278 281 283 283 283 284 284 285 285 286 286 286 287 287 288 289 289 289 289 289 289 290 290 291 291 291 291 291 292 293 294 295 295 296
275 275 275 274 274 273 273 272 272 272 272 272 272 271 271 271 271 271 271 272 271 271 270 270 270 272 272 272 273 274 274 274 274 274 275 275 275 275 275 276 277 278 278 278 278 281 281 282 284 285 285 286 287 288 288 288 288 288 287 288 288 289 289 290 290 290 290 290 290 291 293 294 294 294
275 275 275 274 274 273 273 273 272 272 272 272 271 271 271 271 271 271 271 271 270 270 270 271 271 272 273 273 272 274 275 275 275 274 274 274 276 275 275 275 277 277 278 280 282 281 281 282 282 283 284 285 286 286 287 287 288 287 286 286 287 287 288 289 289 289 289 289 289 290 290 291 293 293
275 275 275 274 274 274 274 273 273 272 272 272 271 272 271 271 271 270 271 271 270 270 271 271 272 273 273 273 274 275 275 273 273 275 274 273 273 274 275 276 275 276 277 276 277 280 280 280 281 283 283 284 284 285 284 284 284 283 284 285 286 287 287 288 288 288 288 288 289 289 290 290 291 292
274 274 274 274 274 274 276 276 275 275 275 272 272 272 272 271 271 271 271 271 271 272 272 272 273 273 273 274 273 273 273 273 273 274 274 273 274 275 275 276 276 277 276 276 277 276 277 277 277 278 277 278 280 280 282 283 283 283 284 285 286 287 287 288 288 288 288 288 289 289 289 289 290 290
274 273 273 274 277 277 277 277 277 278 277 276 274 273 272 271 271 270 270 270 271 272 271 271 272 272 272 272 273 273 274 275 275 274 274 273 274 275 274 275 275 277 276 276 275 277 278 277 276 276 276 277 278 278 278 278 280 281 284 285 286 287 287 288 288 288 288 289 289 289 289 289 289 290
273 273 273 273 276 277 277 277 278 278 279 278 277 277 276 275 272 271 270 271 272 272 272 273 273 273 272 273 275 274 274 275 274 274 274 274 274 273 272 271 275 279 277 275 273 273 275 275 274 274 275 276 276 277 277 281 282 284 285 286 287 287 288 288 288 288 289 289 289 289 289 289 290 290
273 273 273 273 275 275 276 276 277 278 279 279 278 278 278 277 277 277 274 273 273 273 273 273 273 273 273 274 275 274 275 274 274 275 275 274 273 273 272 273 272 276 276 273 271 271 273 274 273 272 274 275 276 276 280 282 283 284 285 285 286 286 287 287 288 288 288 289 289 289 290 290 290 289
273 273 273 272 274 275 277 276 276 276 277 279 279 278 279 279 279 279 280 280 277 276 275 274 274 274 275 274 275 275 274 276 274 274 274 274 274 274 274 274 273 274 274 271 269 269 271 273 272 272 274 274 275 276 279 281 283 284 285 285 286 286 286 287 287 288 288 288 289 289 289 290 289 290
274 273 273 272 273 274 275 275 275 276 276 277 277 277 277 277 279 281 282 282 281 280 277 276 274 276 276 274 275 275 277 275 274 274 274 275 274 273 272 273 272 272 273 270 269 268 270 272 271 271 272 274 274 275 278 282 283 284 284 284 285 286 286 286 287 287 288 288 289 289 289 289 289 289
274 274 273 273 273 274 275 275 275 275 275 276 276 277 277 277 277 277 277 277 277 277 276 276 275 275 275 275 276 277 277 276 277 277 276 274 272 272 272 270 271 270 272 271 270 265 269 271 270 270 271 273 274 275 278 280 280 282 282 283 283 284 285 286 287 287 288 288 288 289 289 289 289 289
274 274 274 274 273 273 274 277 279 277 276 275 274 273 273 273 274 274 276 277 277 276 276 276 276 276 276 278 277 278 279 279 278 277 275 273 270 267 266 265 267 268 271 272 269 267 267 271 269 270 272 274 272 273 273 277 279 281 282 282 283 284 285 286 286 287 287 288 288 289 289 289 289 289
274 274 274 275 274 274 274 278 280 280 278 273 272 271 271 271 272 273 275 278 279 280 280 280 280 281 281 282 282 281 281 279 278 274 270 268 267 264 263 264 265 266 269 269 270 268 267 269 271 270 272 272 272 272 273 273 277 280 281 281 282 283 284 285 286 287 287 288 288 288 289 289 289 288
274 275 277 276 275 275 274 279 281 281 278 273 272 272 271 271 271 272 275 276 276 279 280 280 280 280 280 279 279 279 278 277 276 270 266 266 265 263 263 262 264 266 268 269 271 268 268 271 271 270 271 271 272 272 273 273 274 277 278 279 280 281 282 283 284 286 287 287 288 288 289 289 288 286
274 274 276 277 276 275 276 280 282 282 278 273 272 272 272 271 271 273 275 274 274 275 275 275 275 275 275 274 272 272 274 274 273 270 268 266 263 262 263 263 264 263 265 270 272 268 267 269 270 270 267 266 270 272 272 273 273 273 273 273 274 278 280 281 282 284 285 286 286 287 287 288 287 284
274 275 275 277 279 279 279 280 282 282 280 273 273 273 272 272 272 275 274 274 275 274 273 273 274 273 273 272 271 270 268 268 268 268 268 268 266 264 264 264 264 263 265 270 272 269 269 270 269 271 269 266 264 269 271 271 272 272 273 272 272 276 278 278 278 280 282 283 285 286 286 287 287 284
273 274 275 276 279 280 280 280 281 282 282 278 275 275 273 274 274 276 272 274 276 274 272 271 270 269 267 266 267 267 267 267 267 268 269 269 269 267 265 264 265 265 267 270 274 270 267 269 268 269 268 268 268 268 269 271 271 272 272 272 272 272 273 273 275 275 279 281 283 284 285 286 287 285
273 274 274 274 278 280 280 280 281 281 281 281 276 276 278 278 278 276 275 271 269 268 267 265 265 264 263 262 261 262 264 265 267 267 268 269 269 269 269 267 265 264 265 270 273 270 268 267 268 267 268 267 267 269 267 268 270 271 272 272 272 272 273 272 273 274 276 278 278 280 280 284 286 286
273 273 273 274 278 280 280 280 281 281 282 281 278 279 279 279 279 277 268 268 266 265 263 262 262 261 259 258 260 261 263 266 267 267 268 268 269 269 269 270 269 268 269 270 271 270 269 268 270 268 267 268 266 267 267 266 267 271 270 271 271 272 272 272 272 272 274 275 277 282 283 284 285 286
273 273 273 274 279 280 280 280 281 281 281 279 280 280 279 279 277 267 266 265 264 262 261 259 259 258 259 260 261 262 264 266 267 268 268 268 268 268 268 269 269 270 270 270 270 270 270 269 269 270 269 268 266 265 265 268 269 269 268 270 271 271 272 272 272 273 274 276 278 279 279 279 280 280
274 275 276 277 278 280 281 281 281 281 281 280 280 279 279 273 266 265 263 261 259 259 258 258 258 259 260 262 264 266 266 267 267 266 266 267 267 267 268 268 268 269 270 270 270 271 271 270 269 270 269 269 267 267 267 266 267 267 268 268 267 269 271 271 271 271 272 273 274 277 278 279 279 280
277 277 277 278 278 279 280 279 278 274 276 279 278 276 271 266 264 262 261 258 258 257 257 258 258 260 261 263 265 266 266 265 263 264 263 263 264 264 265 265 266 267 269 270 271 271 271 271 270 270 269 269 268 267 267 267 266 267 268 268 268 269 270 271 271 272 272 273 276 278 279 280 280 280
275 276 276 276 278 278 279 277 274 274 273 269 267 264 264 262 261 260 258 259 258 258 258 259 260 261 262 262 262 261 262 262 262 264 263 263 263 264 265 265 265 266 267 269 270 271 271 271 271 270 268 267 268 268 268 268 266 266 267 268 268 265 267 269 270 270 270 271 272 274 278 280 280 281
275 275 277 278 276 275 272 269 267 266 264 264 263 262 261 260 261 262 265 264 262 263 263 263 262 260 259 258 259 260 261 261 262 263 263 263 263 264 265 264 264 265 266 267 268 269 270 271 270 270 270 269 267 267 268 267 266 266 266 267 268 268 269 268 268 269 271 271 271 271 274 276 278 280
274 274 272 269 267 266 265 264 263 262 262 261 261 261 259 259 259 259 259 260 260 260 259 257 257 257 258 258 259 259 260 260 261 262 262 263 263 264 265 264 264 264 264 265 266 266 267 269 270 270 269 269 269 268 267 265 266 267 266 266 267 267 268 269 269 269 270 270 270 271 273 275 277 279
272 270 268 267 267 265 264 264 263 262 262 260 259 259 262 260 259 259 258 259 259 259 258 259 258 258 258 258 259 259 259 260 261 263 265 263 264 264 263 263 264 265 265 265 265 265 266 266 267 267 268 269 269 269 268 266 265 266 267 267 267 266 268 269 269 270 270 270 270 270 272 275 278 280
270 268 267 266 265 265 265 264 264 262 261 259 259 259 260 260 260 261 259 259 259 259 260 259 259 260 258 259 259 259 260 261 261 261 263 264 264 263 264 264 264 264 264 264 264 265 265 265 265 265 265 266 265 267 272 269 266 266 266 266 267 267 267 269 269 270 271 271 272 272 273 274 276 279
269 268 267 266 265 264 264 264 262 261 260 260 259 259 258 258 259 259 258 260 260 259 259 259 259 259 259 259 259 260 260 262 261 262 262 263 263 264 264 264 264 264 264 264 264 265 265 264 264 264 262 262 262 262 263 271 272 268 266 265 267 268 268 269 270 270 270 270 270 270 270 271 275 279
268 267 267 266 265 264 263 263 261 260 260 259 258 258 259 258 259 260 260 263 261 260 260 260 259 260 259 259 260 261 261 261 261 262 262 263 263 264 264 264 265 264 264 264 264 264 264 264 264 264 262 262 261 260 262 265 269 272 269 266 266 267 268 268 269 268 269 270 271 272 273 275 276 278
267 267 266 265 264 263 263 261 260 259 259 258 258 259 259 259 260 260 261 260 259 259 259 259 258 259 258 259 259 260 260 261 262 262 263 263 263 264 264 264 264 264 263 263 264 263 264 264 264 264 263 261 260 261 261 264 265 268 271 269 266 267 268 267 266 266 267 269 268 269 270 269 272 278
267 266 265 264 263 262 261 260 259 259 258 258 258 258 258 258 259 259 259 258 258 258 258 258 258 259 259 259 260 260 260 261 261 262 263 263 264 264 264 264 263 263 262 262 263 263 263 263 263 264 264 262 261 262 263 263 263 266 269 273 270 267 267 267 266 267 267 267 268 270 271 273 275 277
267 266 265 264 262 262 261 259 259 259 258 257 257 258 257 257 257 257 257 257 257 257 258 258 260 261 260 260 260 259 260 261 262 263 263 264 264 265 264 263 262 262 261 261 261 262 262 262 263 264 264 265 266 266 266 266 266 267 267 269 273 271 268 268 267 267 266 268 269 268 267 270 270 274
265 264 264 263 261 261 259 258 258 258 257 257 257 258 257 257 257 256 256 256 257 258 258 259 259 258 258 258 258 259 260 262 263 263 264 265 265 265 264 264 262 261 260 260 261 261 262 263 266 270 268 267 267 267 265 263 262 263 265 266 271 274 274 274 270 269 268 269 269 268 267 267 268 271
265 264 263 262 260 259 259 258 257 256 256 256 256 256 256 257 256 259 259 261 260 259 258 257 257 258 258 258 259 261 261 262 263 264 265 265 264 264 263 262 261 261 260 260 260 261 263 265 266 266 266 266 265 263 262 262 262 263 264 266 267 271 274 274 275 275 272 270 269 267 268 268 269 269
263 262 261 260 260 258 258 257 256 256 255 255 255 255 255 255 255 257 256 256 256 256 256 256 257 257 258 259 260 261 262 263 264 265 265 265 264 262 261 261 261 261 261 261 262 263 263 264 265 265 265 265 265 264 262 263 263 264 264 265 266 267 269 273 274 275 275 276 276 273 271 270 269 268
262 261 260 259 258 257 256 255 255 255 255 255 254 254 254 254 254 254 254 254 255 255 256 256 257 257 258 259 260 262 263 264 265 265 265 264 263 262 261 261 261 261 261 261 261 262 263 264 264 265 264 264 265 264 263 263 263 264 264 265 266 266 266 268 270 272 274 275 276 277 277 277 276 276
262 260 258 257 256 255 255 255 254 254 254 254 254 253 254 254 254 254 254 254 255 255 256 256 257 257 258 260 261 262 264 266 266 266 265 264 262 262 261 261 260 260 260 261 261 261 263 263 264 265 264 264 265 264 264 264 264 264 264 264 264 265 266 267 267 267 268 269 273 276 277 278 278 278
Wind_Speed
8 7 9 8 7 6 6 5 6 6 5 6 6 7 9 7 6 3 2 4 4 2 1 1 1 3 2 5 4 3 1 2 3 2 3 5 5 10 17 19 20 21 21 21 21 21 21 21 22 22 22 23 23 24 25 25 26 26 27 28 29 29 29 28 27 28 28 28 29 28 28 29 29 30
8 7 7 6 7 6 7 8 7 7 7 7 7 7 5 6 8 6 6 5 4 4 1 1 1 4 5 4 4 3 3 7 8 4 5 5 4 13 18 19 20 21 22 22 22 22 22 23 23 23 24 24 24 25 26 26 27 28 28 29 29 29 29 29 29 29 28 29 29 29 29 29 30 30
9 9 10 7 7 7 8 7 7 6 7 7 7 6 6 6 5 8 6 2 6 5 5 1 0 1 1 2 3 4 7 9 11 9 8 7 11 18 13 17 19 20 21 22 22 22 22 22 23 23 23 23 24 24 25 26 27 28 28 29 29 29 29 29 29 28 29 29 29 29 30 30 30 31
9 10 11 10 9 8 7 7 7 7 6 7 7 7 7 6 6 6 7 7 9 3 4 2 1 0 3 5 6 3 3 5 10 8 10 10 15 10 8 13 18 20 22 22 23 23 23 23 23 23 23 24 24 25 26 27 28 28 29 29 30 30 29 30 30 30 29 29 29 29 30 30 30 31
9 10 10 10 8 8 9 8 8 7 8 7 7 6 7 7 7 8 8 9 9 7 3 3 3 2 2 2 2 4 4 5 6 8 8 8 7 8 8 9 14 19 22 22 23 23 23 23 23 23 24 25 26 26 27 28 28 28 29 30 30 30 31 31 31 31 31 31 31 30 30 30 31 31
10 10 10 10 9 9 9 8 9 8 9 9 8 8 9 8 8 8 9 7 7 10 3 4 3 3 3 4 3 5 5 6 7 9 8 6 6 7 7 7 8 17 20 21 22 22 22 22 22 23 23 25 26 27 27 28 29 29 29 29 31 31 31 31 32 31 31 31 32 31 32 32 32 33
11 11 11 11 9 8 9 9 9 8 9 8 9 9 7 8 7 8 7 6 7 7 7 3 2 4 4 5 5 5 6 7 8 9 8 8 6 6 8 8 6 13 18 20 21 21 22 22 22 23 23 24 25 25 26 27 28 28 29 30 30 30 31 31 32 32 32 32 32 32 32 32 32 33
13 14 12 11 12 11 11 9 9 8 8 9 8 8 7 7 7 6 6 6 5 4 5 3 3 3 2 4 5 6 6 7 7 7 8 7 7 8 7 7 7 10 18 20 20 21 22 22 22 22 23 24 25 26 26 27 27 28 29 30 30 31 31 32 33 33 33 33 33 33 34 34 34 33
15 14 15 13 13 12 12 10 10 9 11 9 8 8 7 7 6 5 6 6 5 5 6 5 4 4 4 5 6 6 6 6 6 6 7 7 7 7 7 6 7 13 18 19 20 21 21 21 21 22 22 23 24 24 26 27 28 29 30 31 31 32 32 32 33 33 34 34 34 33 33 34 33 33
14 14 14 13 13 14 14 13 11 10 12 9 9 8 7 6 5 6 5 5 5 5 5 6 6 4 5 3 4 5 6 6 7 6 6 5 5 5 5 5 5 5 6 6 8 11 14 15 19 20 21 23 25 26 28 28 29 30 31 31 31 33 33 33 34 34 35 36 35 34 35 35 35 34
13 13 13 13 14 15 14 13 13 12 11 10 10 9 8 7 7 6 5 5 5 5 5 6 6 6 5 4 4 3 5 7 6 8 7 5 4 5 7 8 5 6 7 9 16 15 14 16 14 18 22 24 26 28 27 28 30 29 31 32 34 35 36 36 37 36 36 36 37 35 36 36 35 36
13 13 13 13 14 14 13 12 11 12 12 9 9 8 7 8 7 6 5 5 5 5 5 5 5 5 4 4 4 4 3 4 5 5 6 9 8 7 6 7 9 7 7 8 5 7 10 11 14 19 20 21 25 29 26 28 29 31 33 33 34 35 36 36 37 37 37 36 37 36 36 36 37 37
12 12 12 12 12 13 13 15 13 13 11 10 9 8 9 9 8 7 5 5 5 5 5 5 4 4 5 4 3 3 4 5 7 5 6 8 8 9 9 7 6 7 8 7 6 5 6 9 8 7 9 9 16 21 25 22 27 29 31 32 33 35 35 36 35 36 37 37 37 37 37 37 37 36
13 13 12 11 18 19 19 18 18 18 17 15 9 9 11 10 9 8 7 7 6 5 6 5 5 5 4 3 2 4 4 4 5 6 7 9 9 10 12 9 4 5 6 7 9 8 8 13 15 11 10 11 13 11 11 10 15 22 28 30 31 33 34 34 36 36 36 36 36 37 37 36 36 36
14 13 12 11 16 17 17 16 20 19 20 18 17 17 15 12 11 10 10 8 8 7 6 5 5 6 7 6 4 4 4 4 5 6 7 10 11 11 14 15 9 2 9 11 10 11 8 10 15 10 6 9 13 10 9 19 26 29 29 30 30 32 34 35 36 36 36 36 36 36 36 37 37 35
13 14 13 10 10 11 13 12 14 16 19 19 18 18 18 19 19 16 11 10 8 8 7 6 7 7 7 6 5 5 4 4 6 8 9 9 11 14 13 12 14 9 11 16 16 13 3 8 13 14 6 7 10 12 18 26 29 31 31 31 32 32 33 34 35 36 36 35 35 35 36 37 36 36
14 13 11 9 6 8 19 13 10 11 13 18 20 19 20 20 20 19 19 16 9 6 7 7 7 8 7 7 6 1 2 5 9 9 10 11 11 11 11 9 11 12 10 14 15 14 6 5 11 14 10 7 10 13 17 25 29 31 31 32 32 33 34 35 36 36 36 35 35 35 35 36 36 35
14 15 14 12 9 9 12 10 11 9 10 11 13 13 13 13 16 19 20 19 19 14 8 7 8 9 6 6 4 4 6 8 8 8 8 6 6 6 8 11 12 12 7 10 12 17 5 2 10 17 11 8 11 11 17 28 29 32 33 34 34 35 36 36 36 37 36 36 36 35 36 36 36 35
14 15 13 9 12 12 12 10 14 11 11 11 11 11 11 11 8 7 7 7 5 6 5 5 5 5 4 6 7 7 6 9 8 7 6 4 6 8 9 10 9 10 4 6 6 12 12 5 9 17 14 10 13 9 14 28 32 34 34 34 34 35 35 35 36 36 37 36 35 36 36 36 36 36
11 8 7 9 10 11 10 16 23 17 10 11 11 11 8 6 6 6 6 8 9 8 7 6 7 7 8 10 8 7 7 6 5 4 5 6 7 8 9 11 7 9 4 4 6 10 13 8 9 18 13 9 14 15 12 21 29 30 31 31 32 33 32 33 35 36 36 36 36 35 36 36 36 35
11 12 10 10 9 11 11 19 23 23 18 10 11 10 9 6 5 5 6 12 16 16 17 16 16 15 15 13 13 14 17 12 7 6 7 8 5 7 11 12 8 8 5 5 6 8 12 10 10 14 17 13 17 14 15 11 16 25 30 33 33 31 32 34 34 35 35 35 36 35 36 35 34 39
8 10 19 13 9 9 11 21 23 24 18 12 12 11 10 9 8 7 8 7 8 16 17 17 15 13 10 11 14 13 11 10 9 4 8 6 4 8 5 11 11 11 6 8 7 6 7 10 9 13 14 19 13 9 12 16 15 21 22 28 31 32 32 34 35 34 34 34 33 34 36 34 33 24
6 9 14 18 12 10 14 23 23 25 19 11 12 11 9 9 10 10 10 9 7 7 5 4 4 6 8 3 1 2 9 11 9 5 7 5 4 7 7 8 10 12 5 3 2 10 7 9 10 11 13 16 21 8 8 14 15 12 14 14 17 27 31 34 34 34 35 36 36 35 35 34 30 18
9 9 10 16 21 20 22 23 25 25 24 13 12 11 11 11 12 8 7 7 7 5 4 5 5 5 3 1 4 2 3 5 5 6 6 5 5 7 8 8 7 10 10 6 10 10 9 9 12 12 11 14 18 20 16 17 19 16 12 16 14 20 26 30 28 33 35 35 36 35 36 35 32 18
11 11 9 9 19 23 23 23 25 25 25 19 12 12 10 10 7 8 6 9 12 5 2 2 2 0 1 1 2 5 4 4 5 5 7 6 7 7 8 9 9 10 11 8 12 8 11 10 14 11 12 10 18 20 21 19 20 19 15 12 15 16 14 15 15 18 24 33 35 37 37 37 36 27
7 6 8 8 17 25 23 23 24 25 24 25 11 12 16 16 16 11 6 4 4 4 3 1 1 2 3 3 3 4 4 4 6 6 7 8 8 9 9 9 10 11 13 8 13 11 11 13 13 15 13 11 18 18 18 25 18 18 16 13 12 15 14 17 18 18 17 15 16 20 25 34 34 36
7 5 6 7 20 25 24 23 24 23 25 22 12 20 20 18 19 12 6 6 4 4 3 1 3 4 3 4 4 3 4 5 6 6 6 7 9 10 10 10 10 13 15 14 11 10 10 12 12 13 17 16 17 21 20 20 23 14 22 18 15 12 16 16 18 18 17 18 19 31 33 34 35 36
6 7 6 11 21 22 22 23 23 22 21 13 19 19 20 21 13 7 6 5 4 4 2 2 5 5 3 3 4 3 4 5 6 7 7 8 9 11 10 11 11 12 15 15 14 13 11 12 14 14 16 17 16 18 21 21 22 21 23 14 21 18 16 16 18 18 18 17 17 14 13 13 15 18
8 11 18 19 20 21 22 23 21 19 20 20 18 18 16 12 6 6 5 6 5 4 5 5 4 4 4 4 5 5 5 6 6 5 6 8 9 10 12 12 12 12 12 11 13 13 13 13 14 14 14 15 15 18 18 21 27 22 23 23 20 18 15 16 18 20 20 19 20 15 14 15 15 12
18 19 19 21 21 20 19 15 10 6 7 17 17 15 13 6 6 6 5 5 6 6 5 4 5 5 3 3 4 4 5 4 5 6 7 7 8 8 9 10 10 9 11 12 13 14 13 13 13 15 16 16 15 18 19 21 22 28 22 19 26 24 21 13 17 15 17 18 17 14 15 12 13 10
12 15 15 12 17 12 18 11 11 11 10 8 7 6 5 5 5 5 6 6 6 5 4 5 4 4 3 2 2 3 3 5 6 6 8 8 9 7 8 10 13 11 9 9 11 12 12 13 15 16 15 17 16 20 15 17 21 22 26 21 19 20 22 17 19 19 19 20 21 20 16 14 14 17
10 10 13 15 10 9 8 8 7 6 5 5 6 5 5 5 5 6 8 7 4 4 4 3 2 2 2 3 3 3 4 6 6 6 7 8 9 8 8 10 11 10 12 9 8 12 13 12 11 14 18 16 18 18 16 15 17 18 22 21 21 23 22 21 22 20 18 19 20 21 19 16 16 13
9 9 8 7 7 8 8 7 6 6 6 4 5 6 6 5 4 3 5 6 6 5 3 4 4 4 2 3 3 4 5 6 6 6 7 8 8 9 7 10 12 11 13 15 10 8 8 10 11 14 15 16 20 20 17 17 21 17 16 21 19 21 21 19 19 20 18 19 20 20 19 16 16 17
11 10 10 10 10 9 9 9 9 8 7 7 6 5 6 5 4 5 5 4 4 4 4 4 3 3 2 3 4 4 6 6 6 7 8 8 7 8 9 10 11 11 11 12 12 12 11 12 9 12 13 17 17 19 16 17 22 22 17 15 17 20 20 16 19 20 20 18 19 20 21 18 13 12
13 12 12 11 9 10 9 10 9 8 8 11 9 6 6 6 6 6 5 4 4 4 4 3 3 3 3 5 4 6 6 7 7 5 5 7 8 8 9 11 12 11 11 12 12 10 8 11 10 13 14 12 13 15 21 20 19 19 16 16 13 17 19 16 18 19 19 19 17 19 20 18 15 14
14 13 13 12 11 10 10 10 8 8 10 10 8 7 5 5 5 5 4 4 4 4 4 3 3 3 4 5 5 6 7 8 7 6 6 6 7 9 9 10 12 12 11 10 11 11 10 11 10 12 15 17 14 20 17 11 17 15 15 17 14 13 17 18 17 18 16 17 19 20 22 23 18 12
15 13 13 13 12 11 11 10 9 9 10 10 8 4 5 4 5 4 4 4 3 3 3 3 3 3 4 5 6 7 7 7 8 7 8 7 7 8 10 12 11 11 11 12 10 11 9 11 10 11 13 15 17 18 26 11 13 20 16 18 20 16 14 14 13 17 16 17 20 18 19 19 19 16
14 13 13 12 12 11 10 10 10 11 9 8 6 5 4 4 4 4 4 3 3 2 2 2 3 3 5 5 5 6 6 7 8 8 9 7 8 9 10 11 13 12 13 11 10 9 9 10 11 11 11 14 14 19 23 22 5 9 16 20 19 21 14 14 18 17 19 18 20 23 19 21 23 17
13 13 13 12 12 12 11 13 15 14 8 7 6 6 5 5 4 4 3 2 3 3 2 3 4 4 5 5 6 6 6 7 8 8 8 8 8 10 11 11 11 10 11 14 12 10 8 9 10 9 10 12 17 15 18 20 26 17 13 25 24 22 21 14 17 17 17 18 17 18 19 19 20 28
13 12 12 12 11 11 10 12 14 13 12 7 7 5 5 5 5 4 4 4 3 3 3 4 4 4 4 5 6 6 7 9 9 8 8 9 9 9 9 10 10 13 12 13 14 13 11 10 9 9 11 13 15 17 16 20 21 20 18 17 29 30 25 17 19 18 19 18 16 17 19 15 16 14
12 12 11 11 11 10 12 15 15 11 10 6 7 6 5 4 4 4 4 4 3 3 3 4 3 4 6 6 6 7 8 8 8 8 9 9 10 10 12 13 12 10 10 16 15 13 13 12 14 27 23 16 15 16 16 14 19 19 15 11 13 27 34 30 25 22 20 18 16 17 17 17 15 14
11 11 10 10 12 12 12 13 13 12 11 7 8 8 6 5 5 6 4 3 2 1 1 3 4 5 6 6 6 7 8 9 8 8 9 9 11 11 11 9 10 11 11 14 16 15 17 14 15 14 13 13 12 14 16 17 19 22 22 17 13 16 29 33 34 33 26 20 16 17 18 16 13 15
10 10 10 8 9 11 11 11 14 13 11 7 6 6 6 5 3 3 2 3 2 2 3 4 4 5 6 7 7 8 8 9 9 9 9 9 8 10 13 12 11 11 11 13 14 15 13 14 11 13 13 11 11 11 18 18 21 21 23 23 21 15 13 22 31 32 34 37 35 29 22 16 12 16
10 10 10 10 11 12 12 14 13 12 12 9 7 5 5 4 4 4 4 3 3 3 3 3 4 5 7 7 8 8 8 8 8 9 9 8 9 9 11 13 13 13 11 12 14 14 13 11 11 10 12 14 13 14 16 19 18 18 20 21 21 19 21 15 14 22 27 32 37 38 43 43 37 35
9 10 11 10 11 13 14 13 13 11 10 9 6 6 5 4 4 3 3 4 3 3 3 4 5 6 7 7 8 8 8 10 10 9 8 8 9 10 10 11 12 14 14 11 12 16 14 14 12 10 11 13 11 13 18 16 20 21 22 22 23 21 18 16 16 17 16 17 24 34 37 39 41 43
Wind_Direction
172 172 177 179 167 171 163 165 163 162 159 164 165 175 171 167 149 188 234 283 278 321 147 149 295 92 137 126 132 139 158 278 312 298 314 307 306 302 309 311 313 314 313 314 314 314 314 313 313 313 314 315 315 315 314 313 312 310 309 308 307 305 303 301 299 298 298 296 294 294 294 293 291 289
172 170 170 169 169 168 171 175 169 168 170 169 177 181 185 172 169 168 168 246 221 268 323 177 254 360 7 20 358 4 321 319 336 321 299 287 279 297 308 309 309 311 313 313 312 313 313 312 313 314 315 316 315 314 313 312 310 309 307 306 304 302 301 299 297 297 297 295 294 292 291 291 290 288
169 173 177 173 172 171 175 167 170 171 167 176 173 180 172 193 172 157 141 147 274 188 229 242 96 78 344 327 329 334 329 327 327 318 304 296 296 306 304 304 307 309 311 312 311 311 311 312 314 313 312 312 311 310 309 307 306 304 303 301 300 298 297 297 296 296 295 294 293 291 290 289 288 288
177 173 180 182 176 173 167 170 173 174 174 170 177 178 180 186 176 158 165 180 243 199 176 201 209 80 306 298 295 304 311 305 300 296 297 298 304 307 301 302 305 308 311 312 312 313 312 312 315 314 313 312 312 310 308 306 304 303 301 300 299 297 296 295 294 292 292 291 290 289 288 287 286 286
178 182 183 182 180 168 173 175 171 173 175 173 179 178 180 183 182 173 172 190 235 274 225 256 272 301 204 282 267 287 281 283 275 268 271 280 287 293 296 301 302 304 307 309 309 309 311 313 315 315 315 314 313 311 309 307 304 303 302 301 299 297 295 294 292 292 290 289 288 288 287 286 285 284
184 181 181 184 178 177 176 170 177 176 175 180 178 189 185 188 187 184 173 200 190 255 235 216 188 201 189 229 237 243 257 261 272 276 276 271 265 272 273 278 282 288 295 299 302 305 307 308 309 310 310 309 308 307 306 305 304 302 301 301 300 296 293 292 291 290 289 288 287 286 285 285 284 283
178 180 188 185 174 172 176 182 183 175 182 180 186 190 189 190 188 186 187 172 207 229 266 206 197 184 198 205 232 234 235 245 253 266 270 272 271 264 269 271 271 277 285 292 296 297 299 301 301 303 303 302 301 300 299 299 298 298 298 297 294 292 291 289 288 286 286 286 285 285 284 284 283 283
182 185 182 187 178 176 181 182 179 184 181 184 188 188 193 191 186 183 182 199 192 212 243 249 169 187 193 232 240 244 242 244 248 243 254 248 253 259 260 263 265 267 274 284 290 293 295 296 296 297 298 298 297 297 298 297 297 296 295 293 292 291 290 288 287 286 286 285 285 285 285 282 281 280
183 185 190 181 176 178 180 182 184 183 186 186 182 191 188 188 181 175 184 194 195 210 234 264 259 239 239 235 239 241 255 253 247 249 250 254 253 256 252 252 256 261 273 284 288 290 290 291 292 292 292 294 294 293 295 294 293 292 291 290 288 288 289 289 286 284 283 282 282 283 281 280 280 278
186 187 185 178 177 180 184 187 184 181 185 180 186 187 186 178 176 177 184 186 195 212 236 248 272 244 248 241 224 234 232 262 280 273 261 253 252 257 269 248 259 263 270 284 273 276 281 279 283 289 290 289 291 295 296 293 290 290 288 286 285 286 285 283 283 282 280 279 278 278 278 277 277 276
187 185 182 179 181 186 189 183 181 180 179 182 187 185 179 174 173 181 179 185 202 215 231 240 243 255 242 230 265 242 243 252 258 279 288 279 270 278 287 292 270 273 275 266 280 284 288 291 293 291 291 291 290 290 291 290 290 286 286 285 285 284 284 282 280 278 277 276 276 276 274 275 275 276
187 185 183 184 186 188 187 183 177 175 179 174 181 179 173 175 171 176 179 189 204 217 226 236 247 241 255 244 226 232 244 266 256 242 300 307 312 300 287 286 297 287 275 285 270 273 284 279 279 284 284 284 285 286 288 285 283 283 282 282 281 281 280 280 278 278 276 275 275 273 273 273 273 273
185 186 186 186 185 184 183 181 175 178 173 170 170 174 175 177 174 175 184 191 201 211 223 243 252 265 274 261 263 278 263 278 292 303 307 300 304 302 298 281 267 274 292 287 276 282 284 292 288 286 283 275 277 279 281 282 282 280 280 279 278 281 280 281 279 279 276 275 274 273 272 272 272 272
187 187 185 183 180 180 180 180 179 181 183 184 179 165 175 179 175 179 179 190 192 199 218 235 255 267 253 259 256 268 273 274 290 307 314 309 312 309 301 288 270 301 287 303 311 310 320 308 296 288 287 286 279 278 281 273 276 276 278 279 280 280 281 279 279 278 275 274 272 271 270 268 268 268
183 184 183 180 180 178 179 180 182 182 185 186 187 186 185 184 177 174 183 193 193 196 216 228 245 257 269 272 273 273 284 290 306 311 311 312 313 317 320 316 317 165 337 318 308 303 309 294 292 292 279 284 285 285 281 287 289 288 285 283 282 281 281 279 278 278 275 273 271 269 268 268 267 266
182 180 178 178 177 178 177 172 180 183 186 188 189 192 193 194 195 193 183 181 188 197 203 220 230 249 259 271 270 278 296 301 313 309 308 306 309 307 304 299 302 325 351 318 311 302 329 299 291 293 282 269 278 285 293 296 295 292 290 287 285 283 280 279 277 276 275 274 273 271 270 268 267 265
182 179 173 162 161 171 176 171 172 173 183 191 193 196 199 201 202 202 202 200 194 191 211 219 235 239 254 266 265 227 275 304 302 303 296 293 288 289 292 300 305 310 337 311 306 302 324 302 290 291 297 289 285 291 297 296 292 292 291 291 288 285 282 280 278 276 274 273 272 270 267 269 268 266
184 180 175 169 160 167 175 170 166 165 175 183 191 197 201 206 210 212 215 221 224 222 213 218 236 245 232 251 265 276 284 286 280 284 279 286 299 303 293 299 293 297 324 297 305 298 316 38 315 295 299 303 285 283 290 293 296 297 295 295 292 288 284 280 277 276 274 272 271 270 270 268 267 266
185 181 178 161 164 168 174 174 171 166 173 181 189 197 202 206 204 210 217 221 219 230 235 233 239 242 240 247 252 259 267 260 256 275 304 329 301 296 299 290 285 289 279 272 292 285 306 350 308 288 297 300 282 274 292 296 295 294 292 290 289 288 285 281 278 274 274 272 270 269 267 267 266 266
185 171 149 156 163 167 173 175 178 178 165 178 185 193 198 195 198 209 212 214 223 223 224 227 231 234 235 243 243 244 248 264 297 315 324 318 317 319 305 291 297 283 277 253 273 288 297 314 293 289 296 290 288 288 280 284 289 290 289 289 291 289 285 284 281 277 273 271 270 268 266 266 267 266
181 180 171 165 161 171 171 179 181 181 176 176 183 188 192 193 201 214 211 221 223 225 229 231 236 243 250 263 277 288 290 291 305 331 320 299 324 311 305 295 294 281 306 273 266 274 289 295 293 296 299 295 290 292 290 280 282 289 290 291 290 290 292 290 283 278 275 271 270 269 267 266 266 267
185 181 181 174 161 166 165 179 182 181 178 176 181 183 186 190 202 212 206 210 223 232 239 242 245 251 262 277 282 290 293 295 305 334 290 293 330 287 272 285 295 298 287 275 262 259 269 300 302 297 299 295 278 269 282 290 286 288 284 287 290 289 289 288 285 282 279 275 272 270 269 269 270 270
169 181 187 186 178 167 169 181 184 183 177 173 180 179 174 191 204 208 201 205 205 211 203 221 241 272 274 295 34 316 310 308 307 297 276 288 260 266 270 273 298 302 300 152 360 311 295 301 289 305 309 302 296 279 274 289 292 285 285 282 284 280 285 286 286 284 281 278 275 274 272 270 270 269
179 173 179 187 184 179 181 185 187 188 183 173 179 177 185 192 204 188 194 210 205 191 195 229 229 222 164 252 289 312 310 286 275 265 254 249 243 253 269 269 263 265 277 302 317 296 294 286 290 298 288 296 298 307 305 297 294 291 286 287 286 285 287 285 282 280 281 280 275 273 273 269 265 263
179 178 174 177 186 186 186 186 189 191 191 180 181 188 191 195 183 185 186 203 204 202 170 117 127 218 345 335 298 290 289 277 266 259 264 257 258 260 263 271 265 265 269 279 298 298 294 298 287 290 281 263 277 290 295 294 291 290 290 282 280 287 282 280 280 277 274 271 270 270 270 267 263 262
176 157 164 162 189 190 188 188 193 194 195 190 177 195 198 200 203 206 177 150 111 109 130 96 355 302 308 301 294 275 266 258 256 256 255 258 257 256 256 263 277 284 286 282 291 289 291 288 290 294 284 284 286 285 290 293 287 294 285 282 277 283 278 285 283 281 280 275 268 266 269 267 262 261
172 123 143 163 187 193 192 192 194 193 193 194 182 190 201 201 208 196 112 135 126 113 116 134 239 249 242 251 258 257 256 257 255 254 261 260 259 260 259 261 264 272 281 288 281 274 271 274 282 283 288 289 289 294 286 290 293 298 293 296 291 277 283 285 281 280 274 271 270 271 270 266 263 262
135 152 150 171 185 190 190 191 193 192 192 192 191 189 198 205 185 111 135 113 135 115 133 209 243 243 228 215 244 242 242 255 263 271 275 272 269 269 271 267 266 264 272 276 280 275 268 273 276 275 277 281 284 285 292 291 287 290 294 293 293 288 287 282 282 281 279 278 273 257 248 247 249 255
164 169 173 178 184 189 191 190 190 193 195 191 197 197 183 141 100 130 113 144 116 168 200 214 224 237 225 222 236 249 265 275 283 281 273 273 269 270 268 268 264 264 266 268 270 270 270 270 274 276 275 276 273 276 278 283 293 291 292 300 297 291 285 284 281 280 280 277 274 271 260 257 250 237
168 173 174 178 186 194 195 192 182 133 178 191 172 147 119 114 121 118 136 132 162 189 197 197 217 229 229 230 242 269 283 282 275 272 273 272 272 269 275 278 268 249 247 255 261 266 268 268 271 279 279 276 273 277 278 285 286 287 290 287 292 294 281 275 278 275 276 279 279 261 255 246 249 242
170 177 177 176 181 178 182 151 129 134 126 111 94 77 96 104 127 140 155 171 169 180 176 205 219 223 232 252 272 271 261 264 261 263 266 269 272 274 274 276 281 281 255 234 246 260 264 267 271 274 273 276 275 274 278 278 277 284 287 285 287 281 290 290 279 277 274 274 276 275 272 257 244 238
157 159 170 175 173 164 141 122 119 118 117 118 114 107 110 120 136 169 176 170 170 184 190 201 210 249 246 266 258 261 255 254 261 258 261 265 273 274 277 282 282 281 285 262 243 250 255 260 260 267 270 272 276 279 279 274 269 275 279 281 281 278 278 282 282 276 272 274 272 269 264 262 258 253
146 149 153 131 132 138 141 138 141 138 130 124 130 128 104 130 167 176 168 175 188 178 166 200 210 230 229 256 256 255 260 256 259 255 260 263 265 276 267 271 281 290 295 297 291 265 253 259 253 258 264 268 269 270 275 279 275 268 268 278 283 278 277 274 274 276 275 270 267 268 262 245 241 249
148 153 153 159 160 162 161 168 170 170 168 156 143 143 169 158 164 182 182 183 182 177 187 198 197 228 229 257 255 260 259 269 256 257 266 273 271 278 281 283 282 280 279 284 292 296 298 286 265 260 250 252 248 252 252 261 271 273 269 272 276 276 275 274 274 271 270 265 269 273 272 270 250 242
158 160 167 171 169 175 175 179 179 170 169 155 137 160 168 174 184 186 180 188 177 177 189 190 204 218 228 251 258 260 264 267 270 259 253 255 273 272 278 285 286 288 286 290 293 295 297 294 300 296 285 273 264 249 220 228 251 267 277 268 264 269 275 274 275 274 270 268 261 262 268 266 255 238
169 169 170 172 175 173 179 185 174 174 170 148 154 152 160 183 186 183 176 185 175 186 179 185 207 221 232 242 248 257 264 272 272 277 279 267 270 277 279 277 281 285 285 288 292 298 301 292 301 298 300 302 299 300 292 212 242 268 277 279 268 263 272 274 271 271 271 274 274 275 273 271 267 250
168 173 174 172 174 175 181 177 173 173 164 151 149 162 159 161 173 174 179 179 176 171 182 191 220 223 240 247 259 260 268 275 280 281 278 278 275 279 285 285 282 281 286 285 287 292 295 293 290 290 295 295 296 293 289 288 238 257 270 278 282 270 271 274 270 268 264 267 273 265 270 278 274 262
172 170 173 173 173 175 173 167 157 156 153 146 151 155 165 154 152 159 161 167 175 163 212 228 247 251 250 251 258 265 267 268 272 276 275 283 290 293 290 291 295 296 293 291 290 286 288 282 285 286 287 287 292 293 298 301 242 214 256 274 279 282 270 268 270 265 270 264 263 268 264 263 268 276
168 168 173 173 176 173 169 169 158 156 150 148 160 159 160 153 152 154 159 169 177 187 201 221 230 238 249 253 254 260 273 274 275 275 280 286 285 288 292 293 293 288 292 295 295 290 278 271 277 279 281 286 286 283 289 292 293 290 258 264 273 277 275 266 268 267 266 268 264 262 260 263 271 266
169 166 172 169 171 171 167 158 147 153 146 155 152 152 150 157 155 158 163 173 173 196 211 228 244 251 255 260 265 266 263 261 266 274 281 287 287 287 285 289 291 298 301 296 299 299 292 282 280 281 285 282 278 278 275 275 277 279 278 261 252 259 265 268 263 267 268 262 265 268 270 271 267 269
162 171 171 164 160 164 160 154 145 137 145 144 146 158 157 151 155 157 155 172 177 190 206 228 242 259 262 264 260 260 267 272 270 274 283 287 289 290 295 301 298 296 296 297 297 293 290 293 290 295 291 281 278 279 280 279 282 287 284 270 233 259 265 266 267 266 265 265 263 262 264 264 270 273
161 163 162 163 164 160 154 148 142 145 134 143 142 146 135 143 151 189 195 213 189 188 245 259 258 256 259 258 262 265 268 274 279 282 287 294 298 300 295 293 289 295 294 293 294 291 291 291 291 292 287 285 291 296 290 289 291 295 296 294 286 255 265 270 266 262 260 260 257 258 258 261 252 255
153 150 156 156 157 151 146 146 135 141 136 138 139 147 133 136 157 192 125 157 182 216 228 247 251 256 266 268 265 265 267 272 278 285 290 290 297 301 303 300 292 288 284 284 284 288 289 293 295 298 297 289 285 283 288 292 293 294 297 300 298 293 271 268 271 266 262 258 253 250 247 248 250 248
152 152 153 155 149 148 141 134 130 129 134 132 135 131 139 139 159 177 174 165 190 212 227 242 262 260 264 269 266 269 267 270 278 288 294 298 297 294 293 295 295 293 288 287 294 294 295 291 290 296 298 301 301 298 292 295 293 294 296 295 296 298 296 293 270 268 265 260 256 253 250 247 244 247
152 152 149 145 143 134 121 131 129 128 128 127 133 132 149 154 166 168 178 194 209 219 236 249 260 265 263 268 272 272 273 284 292 289 292 295 297 292 289 287 292 297 297 295 297 301 304 303 299 294 287 287 291 290 292 291 295 302 300 298 297 297 297 296 291 283 271 268 251 247 249 248 247 247